Terminal Aerodrome Forecast
Issued by NWS

Home | Current Version | Previous Version | Text Only | Print | Product List | Glossary On
Versions: 1 2 3 4 5 6 7 8 9 10 11 12 13 14 15 16 17 18 19 20 21 22 23 24 25 26 27 28 29 30 31 32 33 34 35 36 37 38 39 40 41 42
000
FTUS46 KOTX 131136
TAFCOE
TAF
KCOE 131136Z 1312/1412 23011KT P6SM VCSH BKN025 OVC070
     FM131600 23016G23KT P6SM VCSH SCT030 BKN090
     FM140100 23013G17KT 6SM -RA BKN021 OVC030
      AMD LTD TO CLD AND VIS=

USA.gov is the U.S. government's official web portal to all federal, state and local government web resources and services.